Location: Entzheim
(48.5322°N, 7.6333°E)
Time: 09:49:00
(UTC+00:00)

Daily predictions for brighter satellites

Satellite Brightness Start Highest point End
(mag) Time Altitude Azimuth Time Altitude Azimuth Time Altitude Azimuth
Cosmos 2369 4.4 20:04:58 10° NNW 20:10:29 46° NE 20:15:59 10° SE
Cosmos 2344 4.4 20:07:00 10° NW 20:15:36 72° NE 20:27:34 10° SE
Resurs 01 Rocket 2.3 20:12:55 10° S 20:17:17 56° W 20:21:41 10° NNW
COSMOS 2406 3.7 20:15:18 10° S 20:20:37 40° ESE 20:25:56 10° NE
Cosmos 2184 Rocket 4.0 20:17:27 10° N 20:23:40 80° E 20:29:54 10° SSE
H-2A R/B 2.8 20:21:23 10° N 20:25:47 60° WNW 20:30:13 10° SSW
Cosmos 1833 Rocket 2.7 20:20:34 10° SSW 20:26:09 71° ESE 20:31:45 10° NNE
Cosmos 1867 4.0 20:23:47 10° NNW 20:29:13 58° NE 20:34:34 10° SE
Cosmos 1536 Rocket 3.7 20:27:37 10° SSW 20:31:57 78° W 20:36:21 10° N
Cosmos 1703 3.2 20:29:14 10° S 20:33:05 86° E 20:36:58 10° N
CARTOSAT-1 3.7 20:30:13 10° S 20:34:31 74° WSW 20:38:51 10° NNW
Cosmos 1606 Rocket 3.8 20:31:24 10° N 20:35:40 56° ENE 20:39:49 11° SSE
USA 245 3.0 20:32:30 10° SSE 20:36:22 88° WSW 20:39:30 10° NNW
Cosmos 2322 Rocket 4.2 20:34:15 10° N 20:38:17 19° NE 20:42:19 10° E
Ariane Rocket 3.7 20:33:37 10° S 20:38:36 54° W 20:43:37 10° NNW
CZ-4B R/B 2.6 20:42:45 10° N 20:45:27 36° WNW 20:48:09 10° SW
USA 234 4.4 20:40:49 10° ENE 20:46:57 44° N 20:53:06 10° WNW
ARIANE 5 R/B 3.3 20:44:14 12° SE 20:47:58 41° ENE 20:52:08 10° N
Terra 2.1 20:44:04 12° SSE 20:48:22 58° ENE 20:53:04 10° N
SPOT 3 Rocket 3.9 20:45:01 10° S 20:50:10 66° WSW 20:55:24 10° NNW
SPOT 5 2.6 20:46:57 11° SSE 20:51:07 86° ENE 20:55:28 10° NNW
Cosmos 2278 4.2 20:46:53 10° NNW 20:52:29 50° NE 20:57:25 13° SE
RESURS DK-1 4.1 20:49:04 10° NW 20:52:32 26° WSW 20:56:00 10° SSW
USA 276 2.2 20:50:39 10° WNW 20:53:42 72° NNE 20:56:43 10° E
Cosmos 2341 Rocket 4.4 20:47:56 10° N 20:54:04 50° ENE 20:59:17 14° SSE
FALCON 9 DEB 3.2 20:51:47 10° WNW 20:55:02 69° NNE 20:58:00 12° ESE
Cosmos 1726 Rocket 3.5 20:53:16 10° N 20:57:37 72° E 21:01:15 14° SSE
Cosmos 1331 Rocket 4.4 20:57:57 10° SSW 21:03:14 69° WNW 21:08:33 10° NNE
Cosmos 2082 Rocket 2.3 20:58:43 10° S 21:04:19 61° ESE 21:09:56 10° NE
ASTEX 1 4.2 21:03:44 10° NNE 21:08:22 36° E 21:11:39 17° SSE
Helios 1A Rocket 3.1 21:04:55 13° S 21:08:30 68° WSW 21:12:37 10° NNW
Spot 2 Rocket 3.8 21:04:02 11° S 21:08:54 67° WSW 21:14:02 10° NNW
Cosmos 1328 3.8 21:05:22 10° S 21:09:22 86° W 21:13:23 10° N
Cosmos 2084 Rocket 4.2 21:07:26 10° NW 21:11:04 37° SW 21:13:53 16° S
Cosmos 2360 Rocket 4.1 21:08:37 10° N 21:12:58 22° NE 21:17:18 10° E
Nadezhda 1 Rocket 4.1 21:08:42 10° SSW 21:14:45 75° W 21:20:52 10° N
Cosmos 2181 Rocket 4.4 21:17:08 16° SSE 21:21:46 48° E 21:27:44 10° NNE
X-37B 2.7 21:24:31 10° SW 21:25:27 12° SSW 21:25:27 12° SSW
ERS-1 Rocket 3.5 21:22:06 13° S 21:26:32 54° W 21:31:29 10° NNW
Cosmos 1892 2.6 21:26:27 20° S 21:28:52 66° E 21:32:38 10° NNE
Cosmos 1302 Rocket 4.2 21:30:08 10° SSW 21:35:19 73° WNW 21:40:32 10° NNE
Cosmos 1892 Rocket 4.0 21:38:01 11° SSW 21:42:10 61° WNW 21:46:30 10° N
Cosmos 968 Rocket 4.2 21:37:49 10° NNW 21:42:48 46° WSW 21:46:30 17° S
Cosmos 1503 Rocket 4.4 21:38:59 10° NNW 21:44:12 55° ENE 21:47:32 21° SE
Cosmos 1697 Rocket 4.4 21:40:47 10° NW 21:45:09 24° WSW 21:49:29 10° SSW
Cosmos 1980 Rocket 3.0 21:40:49 10° NW 21:46:12 44° WSW 21:50:07 18° S
ALOS 2 4.3 21:44:13 13° ESE 21:46:52 22° ENE 21:50:16 10° NNE
Cosmos 2219 Rocket 4.3 21:44:36 10° N 21:48:40 20° NE 21:52:44 10° E
SL-16 R/B 2.5 21:43:33 10° NNW 21:49:12 62° ENE 21:52:57 21° SE
Cosmos 2058 Rocket 3.5 21:46:04 10° NNW 21:50:25 56° W 21:53:20 20° SSW
Cosmos 1408 3.1 21:48:44 17° SSW 21:51:12 51° WNW 21:54:36 10° N
Cosmos 1626 Rocket 3.6 21:50:06 26° SSE 21:52:21 61° E 21:56:40 10° NNE
SL-8 Rocket 4.1 21:47:23 10° NNW 21:53:37 77° W 21:58:01 20° S
USA 267 3.7 21:48:06 10° ENE 21:54:10 39° SE 21:59:31 13° SSW
ATLAS 5 CENTAUR R/B 1.1 21:50:51 11° SW 21:54:26 80° SE 21:58:39 10° NE
SJ 16-02 2.0 21:56:59 10° N 22:01:18 46° ENE 22:03:35 24° SE
CSL-04 DEB 4.5 21:58:52 10° NNE 22:03:15 85° ESE 22:05:49 24° SSW
In-Cosmos 22 Rocket 4.2 21:59:05 17° SSW 22:03:21 83° WNW 22:08:47 10° N
SL-4 R/B 3.1 22:04:44 22° ESE 22:04:44 22° ESE 22:06:34 10° E
Cosmos 1825 2.2 22:07:59 28° SSW 22:09:52 73° W 22:13:38 10° N
Cosmos 2366 rocket 4.3 22:07:41 10° NNW 22:13:59 66° W 22:18:15 22° S
Cosmos 1869 3.7 22:12:53 10° NNW 22:16:43 54° W 22:18:25 29° SSW
Cosmos 2218 Rocket 4.4 22:14:08 10° NNW 22:20:25 59° W 22:24:43 21° SSW
Cosmos 2322 Rocket 2.2 22:17:33 10° NNW 22:23:17 79° ENE 22:26:28 27° SE
GP-B 4.1 22:19:24 10° NNW 22:23:35 42° W 22:26:26 18° SW
ARIANE 5 R/B 4.4 22:21:46 14° SW 22:24:35 24° W 22:28:10 10° NW
Terra 3.9 22:23:05 10° SW 22:26:30 19° W 22:29:56 10° NW
SAR-Lupe-4 4.4 22:24:12 10° N 22:27:39 47° WNW 22:29:35 23° SW
USA 276 3.0 22:26:28 10° W 22:28:42 33° WSW 22:28:42 33° WSW
USA 234 3.5 22:22:58 10° ESE 22:29:29 71° NNE 22:36:02 10° NW
BREEZE-M DEB (TANK) 3.7 22:33:40 10° W 22:36:56 87° SSW 22:49:43 10° ESE
Cosmos 1633 2.7 22:39:00 38° SW 22:40:05 60° W 22:43:32 10° N
Cosmos 2333 Rocket 2.9 22:38:33 10° NNW 22:44:10 50° NE 22:48:06 19° ESE
Cosmos 1758 Rocket 3.6 22:42:24 34° SSW 22:44:17 78° W 22:48:42 10° N
Cosmos 1238 4.3 22:44:13 58° SSE 22:44:42 71° E 22:48:19 10° NNE
Cosmos 2082 Rocket 4.1 22:43:52 10° WSW 22:48:49 29° NW 22:53:45 10° NNE
COSMOS 2487 4.4 22:52:54 15° E 22:52:54 15° E 22:54:13 10° ENE
Cosmos 1606 2.8 22:49:29 10° NNW 22:53:20 70° W 22:54:21 46° SSW
Cosmos-2242 3.4 22:49:32 10° NNW 22:53:41 53° W 22:55:10 35° SSW
Cosmos 1812 Rocket 4.4 22:50:10 10° NNW 22:54:24 43° W 22:56:09 29° SW
ADEOS Rocket 3.5 22:53:13 27° SSE 22:57:43 88° WSW 23:05:34 10° NNW
Cosmos 2360 Rocket 2.1 22:52:02 10° NNW 22:57:45 88° WSW 23:00:32 32° SSE
ISS -1.6 23:00:49 16° E 23:00:49 16° E 23:01:46 10° E
Cosmos 1340 Rocket 2.9 22:58:42 45° SSE 22:59:34 59° E 23:03:30 10° NNE
Gbstr 26 Del rocket 3.0 22:59:00 32° SW 23:00:50 60° SSE 23:05:49 10° ENE
Cosmos 2333 4.4 23:01:33 10° NNW 23:07:22 73° ENE 23:10:39 27° SE
Cosmos 1821 Rocket 4.4 23:02:06 10° NNW 23:08:06 52° W 23:11:22 26° SSW
BREEZE-M DEB (TANK) 3.5 23:12:24 34° ESE 23:12:24 34° ESE 23:16:11 10° ENE
SL-27 R/B 3.4 23:13:18 31° E 23:13:18 31° E 23:16:04 10° NE
Meteor 2-11 Rocket 4.4 23:08:11 10° N 23:14:20 82° E 23:17:23 32° SSE
NOSS 3-2 (A) 4.4 23:13:40 23° SE 23:14:56 25° ESE 23:19:48 10° ENE
Cosmos 44 3.1 23:14:09 40° SSW 23:15:39 67° SE 23:20:05 10° NE
Cosmos 972 Rocket 4.1 23:10:50 10° NNW 23:16:05 84° WSW 23:18:41 34° SSE
Cosmos 1833 4.1 23:14:26 33° S 23:16:57 71° ESE 23:22:32 10° NNE
Cosmos 1782 4.1 23:17:16 10° N 23:20:52 32° ENE 23:22:20 24° ESE
ERS-2 2.1 23:18:50 10° NNE 23:22:25 66° ESE 23:22:56 56° SSE
ALOS 2 3.2 23:21:36 35° SW 23:22:55 46° W 23:27:10 10° NNW
Cosmos 2237 Rocket 4.2 23:19:10 10° N 23:23:48 25° NE 23:28:25 10° E
CENTAUR R/B 3.4 23:22:31 25° SE 23:24:18 29° ESE 23:29:58 10° NE
Cosmos 1605 Rocket 4.1 23:18:36 10° N 23:25:02 74° E 23:28:27 29° SSE
NOSS 8 (A) 4.4 23:29:30 48° WSW 23:30:11 67° NW 23:33:08 10° NE
COSMOS 2428 3.2 23:24:58 10° NNW 23:30:37 57° ENE 23:34:37 19° SE
H-2A R/B 4.2 23:26:58 10° N 23:31:02 48° WNW 23:32:48 29° SW
Cosmos 2297 Rocket 4.3 23:29:19 10° ESE 23:31:30 13° E 23:33:47 10° ENE
Cosmos 2058 3.6 23:29:58 31° SW 23:31:32 45° WNW 23:35:35 10° N
Cosmos 2151 4.0 23:31:03 29° SE 23:32:17 35° E 23:36:13 10° NNE
SL-16 R/B 3.6 23:28:23 10° NW 23:32:51 24° WSW 23:34:48 20° SW
Cosmos 2219 Rocket 2.2 23:27:50 10° NNW 23:33:33 81° ENE 23:36:40 28° SSE
Cosmos 1953 Rocket 3.8 23:33:03 37° SW 23:34:39 64° WNW 23:39:02 10° N
USA 267 3.3 23:30:59 10° NE 23:37:33 79° NNW 23:44:05 10° WSW
SJ 16-02 3.0 23:36:12 10° NW 23:39:31 21° W 23:40:31 19° WSW
ATLAS 5 CENTAUR R/B 4.0 23:36:26 10° WNW 23:39:33 21° NNW 23:43:03 10° NNE
SL-4 R/B 1.8 23:40:05 18° W 23:42:34 72° NNW 23:46:19 10° ENE
Cosmos 2322 3.7 23:37:00 10° NNW 23:42:42 87° ENE 23:45:45 29° SSE
Cosmos 1898 Rocket 3.8 23:38:53 10° NNW 23:44:02 61° ENE 23:47:02 24° SE
Cosmos 1937 Rocket 4.2 23:44:04 10° NNW 23:49:12 50° ENE 23:52:46 19° SE
Cosmos 2221 2.9 23:46:44 10° NNW 23:51:00 54° W 23:52:14 39° SW
COSMOS 2455 4.0 23:45:35 10° NNW 23:51:19 42° NE 23:57:00 10° ESE
PSLV R/B 3.7 23:49:01 10° NNE 23:53:47 81° WNW 23:55:36 38° SSW
